Flag for Czechia

Past Weather in Prague, Czechia — Yesterday and Last 2 Weeks

Currently: 34 °F. Partly sunny. (Weather station: Václav Havel Airport Prague, Czechia). See more current weather

Past Weather in Prague — Graph

°F

Prague Temperature Yesterday

Maximum temperature yesterday: 34 °F (at 1:00 pm)
Minimum temperature yesterday: 27 °F (at 8:00 am)
Average temperature yesterday: 30 °F

High & Low Weather Summary for the Past Weeks

 TemperatureHumidityPressure
High52 °F (Jan 22, 11:30 am)100% (Jan 14, 1:00 am)30.21 "Hg (Jan 14, 1:00 am)
Low14 °F (Jan 16, 8:00 pm)54% (Jan 22, 11:00 am)29.21 "Hg (Jan 23, 7:00 am)
Average31 °F83%29.79 "Hg
* Reported Jan 13 8:30 am — Jan 28 8:30 am, Prague. Weather by CustomWeather, © 2021

Note: Actual official high and low records may vary slightly from our data, if they occured in-between our weather recording intervals... More about our weather records

Prague Weather History for the Previous 24 Hours

Scroll right to see more
 ConditionsComfort  
Time TempWeatherWind HumidityBarometerVisibility
8:30 am
Thu, Jan 28
34 °FScattered clouds.20 mph87%29.71 "HgN/A
8:00 am34 °FScattered clouds.22 mph87%29.71 "HgN/A
7:30 am34 °FPassing clouds.23 mph87%29.74 "HgN/A
7:00 am34 °FPassing clouds.21 mph87%29.74 "HgN/A
6:30 am32 °FPassing clouds.18 mph93%29.74 "HgN/A
6:00 am32 °FPassing clouds.18 mph87%29.74 "HgN/A
5:30 am32 °FLight rain. Passing clouds.20 mph87%29.77 "HgN/A
5:00 am32 °FPassing clouds.14 mph87%29.77 "HgN/A
4:37 am32 °FPassing clouds.13 mph87%29.77 "HgN/A
4:00 am32 °FPassing clouds.15 mph87%29.77 "HgN/A
3:30 am28 °FPassing clouds.14 mph86%29.98 "HgN/A
3:00 am32 °FPassing clouds.14 mph87%29.80 "HgN/A
2:30 am32 °FPassing clouds.14 mph87%29.83 "HgN/A
2:00 am32 °FLight snow. Passing clouds.15 mph87%29.83 "HgN/A
1:30 am30 °FPassing clouds.14 mph93%29.83 "HgN/A
1:00 am30 °FLight snow. Passing clouds.13 mph93%29.83 "HgN/A
12:30 am30 °FLight snow. Passing clouds.10 mph86%29.86 "HgN/A
12:00 am30 °FLight snow. Passing clouds.12 mph86%29.86 "HgN/A
11:30 pm
Wed, Jan 27
30 °FPassing clouds.9 mph86%29.86 "HgN/A
11:00 pm30 °FLight snow. Passing clouds.12 mph80%29.86 "HgN/A
10:30 pm30 °FPassing clouds.12 mph80%29.86 "HgN/A
10:00 pm30 °FPassing clouds.9 mph80%29.86 "HgN/A
9:30 pm30 °FPassing clouds.13 mph80%29.89 "HgN/A
9:00 pm28 °FClear.15 mph86%29.89 "Hg10 mi
8:30 pm28 °FClear.12 mph80%29.89 "Hg10 mi
8:00 pm28 °FClear.7 mph80%29.89 "Hg10 mi
7:30 pm28 °FClear.9 mph80%29.89 "Hg10 mi
7:00 pm30 °FClear.5 mph80%29.89 "Hg10 mi
6:30 pm28 °FClear.6 mph80%29.89 "Hg10 mi
6:00 pm28 °FClear.6 mph80%29.89 "Hg10 mi
5:30 pm28 °FClear.7 mph80%29.89 "Hg10 mi
5:00 pm28 °FClear.8 mph80%29.89 "Hg10 mi
4:30 pm32 °FPassing clouds.6 mph75%29.89 "HgN/A
4:00 pm32 °FPassing clouds.8 mph75%29.92 "HgN/A
3:30 pm34 °FPassing clouds.6 mph75%29.92 "HgN/A
3:00 pm34 °FPassing clouds.7 mph75%29.92 "HgN/A
2:30 pm34 °FPassing clouds.10 mph75%29.92 "HgN/A
2:00 pm34 °FPassing clouds.9 mph75%29.92 "HgN/A
1:00 pm34 °FPassing clouds.12 mph75%29.95 "HgN/A
12:30 pm32 °FPassing clouds.12 mph75%29.95 "HgN/A
12:00 pm32 °FPassing clouds.13 mph75%29.95 "HgN/A
11:30 am32 °FScattered clouds.15 mph80%29.95 "HgN/A
11:00 am32 °FScattered clouds.15 mph80%29.98 "HgN/A
10:30 am30 °FLight snow. Partly sunny.14 mph86%29.98 "HgN/A
10:00 am30 °FLight snow. Broken clouds.12 mph80%29.98 "HgN/A
9:30 am28 °FLight snow. Partly sunny.13 mph86%29.98 "HgN/A
9:00 am28 °FSleet. Partly sunny.14 mph86%29.98 "Hg6 mi
Weather by CustomWeather, © 2021

See weather overview